Location: Garos
(43.5000°N, 0.4667°W)
Time: 15:00:57
(UTC+00:00)

Meteor 1-27 - Pass Details

Date: 03 February 2023
Orbit: 837 x 893 km, 81.3° (Epoch: 23 March)

Event Time Altitude Azimuth Distance (km) Brightness Sun altitude
Rises 18:55:52 0° 349° (N) 3,495 7.5 -18.4°
Reaches altitude 10° 18:58:20 10° 349° (N) 2,545 6.8 -18.9°
Maximum altitude 19:04:09 89° 258° (WSW) 877 4.2 -19.9°
Drops below altitude 10° 19:09:49 10° 172° (S) 2,490 6.6 -20.9°
Sets 19:12:13 0° 172° (S) 3,413 7.3 -21.4°
